EDT,Max TemperatureF,Mean TemperatureF,Min TemperatureF,Max Dew PointF,MeanDew PointF,Min DewpointF,Max Humidity, Mean Humidity, Min Humidity, Max Sea Level PressureIn, Mean Sea Level PressureIn, Min Sea Level PressureIn, Max VisibilityMiles, Mean VisibilityMiles, Min VisibilityMiles, Max Wind SpeedMPH, Mean Wind SpeedMPH, Max Gust SpeedMPH,PrecipitationIn, CloudCover, Events, WindDirDegrees
2013-3-1,37,32,28,30,28,26,96,82,65,29.67,29.61,29.54,10,10,10,9,1,,0.00,7,,10
2013-3-2,41,36,30,29,27,24,96,81,53,29.68,29.65,29.61,10,6,2,13,2,17,0.02,7,Snow,6
2013-3-3,39,34,30,29,27,22,96,81,55,29.64,29.60,29.56,10,8,1,10,1,,0.03,8,Rain-Snow,298
2013-3-4,37,32,28,27,21,19,80,64,50,29.74,29.59,29.53,10,8,2,14,6,23,0.00,8,Rain-Snow,287
2013-3-5,42,36,30,32,27,21,89,66,53,30.12,29.98,29.76,10,10,10,13,6,18,0.00,7,,16
2013-3-6,36,33,30,32,28,24,100,82,65,30.26,30.21,30.13,10,7,0,18,9,32,0.06,8,Fog-Snow,58
2013-3-7,34,32,30,25,22,21,80,68,59,30.22,30.17,30.12,10,9,3,16,11,29,0.00,8,Rain-Snow,27
2013-3-8,46,36,25,25,19,14,80,54,29,30.23,30.12,30.06,10,9,2,16,9,31,0.00,4,Snow,16
2013-3-9,54,36,19,25,16,11,88,52,18,30.38,30.27,30.21,10,10,10,8,2,,0.00,0,Rain,25
2013-3-10,48,33,18,28,24,15,96,68,37,30.42,30.35,30.29,10,10,2,9,3,,0.00,0,Rain,133
2013-3-11,52,41,30,33,29,24,92,66,35,30.28,30.19,30.13,10,10,10,8,3,,0.00,1,Rain,165
2013-3-12,46,41,36,46,41,33,100,97,86,30.12,29.94,29.71,10,3,0,8,2,,0.72,7,Fog-Rain,115
2013-3-13,46,39,33,43,36,23,100,83,45,29.75,29.71,29.68,10,6,0,10,3,16,0.02,7,Fog,315
2013-3-14,37,26,18,23,15,1,88,59,40,29.78,29.71,29.64,10,10,8,12,5,22,0.00,5,Rain-Snow,295
2013-3-15,37,23,10,23,9,1,85,56,26,29.80,29.70,29.59,10,10,10,9,2,18,0.00,2,,244
2013-3-16,34,26,21,16,11,7,80,53,35,29.89,29.78,29.66,10,10,2,12,5,18,0.00,5,Snow,322
2013-3-17,28,18,10,9,3,-4,88,50,32,30.31,30.06,29.90,10,10,10,17,7,31,0.00,1,,294
2013-3-18,36,18,1,17,3,-3,83,51,23,30.45,30.35,30.26,10,10,10,6,2,,0.00,0,,116
2013-3-19,28,24,21,27,23,19,96,88,67,30.23,29.95,29.72,10,1,0,14,5,23,0.71,8,Fog-Snow,26
2013-3-20,36,24,12,25,19,11,96,75,43,29.72,29.67,29.62,10,7,1,15,6,23,0.03,7,Rain-Snow,283
2013-3-21,39,26,12,16,12,5,84,55,24,29.75,29.68,29.59,10,10,10,8,2,,0.00,1,Rain,143
2013-3-22,37,26,16,21,14,10,84,60,32,29.67,29.63,29.61,10,10,10,14,3,23,0.00,5,Rain,291
2013-3-23,39,31,25,22,17,13,66,54,41,29.70,29.62,29.55,10,10,9,22,11,36,0.00,5,Rain,285
2013-3-24,44,34,23,22,21,19,88,57,40,29.81,29.76,29.70,10,10,10,14,7,26,0.00,1,,335
2013-3-25,41,29,17,27,22,14,96,69,49,29.79,29.70,29.60,10,10,10,10,3,18,0.00,6,Rain,41
2013-3-26,46,37,28,25,20,17,69,52,34,29.76,29.67,29.60,10,10,10,13,6,22,0.00,2,,335
2013-3-27,48,37,28,34,27,20,96,65,39,29.90,29.80,29.73,10,10,10,10,4,17,0.02,5,Rain,346
2013-3-28,46,38,30,36,31,27,100,82,50,30.00,29.94,29.88,10,10,2,7,1,,0.02,7,Rain,40
2013-3-29,50,41,30,33,29,26,85,60,44,30.03,30.00,29.97,10,10,10,8,4,,0.00,6,Rain,285
2013-3-30,53,39,26,31,20,10,92,55,20,30.10,30.04,30.00,10,10,10,12,1,16,0.00,1,Rain,304
2013-3-31,55,36,18,33,20,15,92,56,23,30.12,30.02,29.83,10,10,10,12,2,18,0.00,1,Rain,152